Location: Grand Lay
(47.3253°N, 0.9468°E)
Time: 09:33:38
(UTC+00:00)

Cosmos 1758 - Pass Details

Date: 18 January 2026
Orbit: 479 x 500 km, 82.5° (Epoch: 16 February)

Event Time Altitude Azimuth Distance (km) Brightness Sun altitude
Rises 05:28:05 0° 186° (S) 2,575 6.8 -21.3°
Reaches altitude 10° 05:30:11 10° 186° (S) 1,694 5.8 -21.0°
Maximum altitude 05:33:54 85° 99° (E) 503 3.0 -20.4°
Drops below altitude 10° 05:37:37 10° 10° (N) 1,696 5.8 -19.7°
Sets 05:39:43 0° 10° (N) 2,579 6.8 -19.4°
